Theta_e
292 289 286 288 287 284 285 284 284 285 290 289 288 288 291 293 291 291 291 291 292 292 297 296 297 297 297 304 309 315 321 327 328 329 329 330 329 330 331 331 329 326 323 319
289 284 290 290 289 287 285 283 283 286 289 288 287 288 290 291 292 292 292 292 291 291 293 294 295 294 295 298 304 311 318 324 327 329 330 331 332 332 331 331 329 328 325 322
286 288 291 290 287 286 284 283 283 285 286 285 284 284 285 288 289 292 292 293 292 293 294 294 294 294 293 294 296 305 315 320 326 328 325 316 320 319 323 328 328 327 326 323
288 291 290 288 287 287 283 289 287 286 283 280 283 277 282 286 288 289 292 289 289 291 291 293 293 293 294 295 295 301 309 317 323 325 324 324 325 324 325 328 329 327 326 324
287 289 288 286 288 289 287 288 286 285 281 280 280 279 282 283 285 289 289 291 291 291 291 295 295 297 297 297 296 299 309 314 318 322 324 323 322 319 313 313 321 318 319 324
286 290 290 290 289 289 290 287 285 283 281 276 280 280 279 282 285 285 289 291 292 294 295 294 295 295 296 297 297 301 306 309 312 315 316 318 318 311 309 308 314 316 317 314
286 286 290 290 287 288 285 283 277 275 274 276 278 278 281 286 286 286 290 292 293 293 294 294 295 294 294 296 297 298 303 305 310 312 313 313 314 310 310 308 308 307 310 308
281 280 288 290 288 286 283 283 278 271 273 275 281 278 284 287 290 291 293 292 293 293 294 294 295 295 295 295 296 297 298 299 302 306 308 308 309 308 308 307 305 305 308 313
281 281 287 288 289 290 285 281 284 279 268 273 278 281 287 289 291 290 292 292 293 293 294 295 295 295 295 296 296 297 298 299 299 300 302 304 304 304 305 304 303 302 302 301
286 280 286 287 289 289 287 288 281 279 270 269 276 277 281 286 288 289 291 291 293 293 294 294 294 294 295 294 296 297 298 298 299 299 299 300 301 301 302 301 301 299 299 299
286 284 283 286 285 285 285 283 283 283 279 273 271 277 284 288 290 290 291 292 293 293 293 293 293 293 294 295 296 296 297 297 297 298 298 298 298 299 299 299 299 298 297 297
289 286 280 283 286 287 286 285 285 280 277 279 279 281 289 290 291 292 291 293 293 292 292 292 292 292 293 293 294 295 295 296 297 297 297 297 297 297 297 297 297 296 296 295
290 283 273 279 283 285 284 285 287 285 282 280 276 279 288 289 291 291 292 292 292 292 292 293 293 293 293 293 293 293 294 294 295 296 296 296 295 296 296 296 296 295 295 294
295 285 283 280 281 285 283 284 285 286 280 281 281 283 286 289 288 290 291 291 291 291 292 292 292 292 293 293 292 293 293 293 293 294 294 294 294 294 295 295 294 293 293 293
292 285 284 285 286 285 285 283 285 284 286 283 285 284 288 289 290 290 291 290 290 291 291 291 291 291 291 292 291 292 292 291 291 291 292 292 292 293 292 292 291 290 290 289
292 284 286 284 287 285 281 284 284 285 285 286 285 285 291 292 291 288 290 290 289 290 291 291 291 291 290 290 290 290 290 289 288 288 288 289 288 287 287 288 288 288 288 287
286 285 284 281 285 284 280 283 283 284 287 287 284 288 290 289 290 288 288 289 289 289 290 290 290 290 290 289 289 288 287 286 285 285 285 285 285 285 286 286 286 286 287 286
285 285 285 280 281 275 281 284 288 287 289 291 289 287 290 290 289 289 288 286 287 287 288 289 290 290 289 289 288 287 285 285 284 284 283 284 284 284 285 284 285 285 284 284
291 286 281 279 277 278 280 282 285 285 286 289 288 285 286 287 288 287 288 287 287 287 288 289 289 289 288 287 285 284 284 283 283 283 283 283 282 281 282 282 283 283 281 281
285 288 283 275 273 271 278 280 285 289 277 278 287 284 284 283 281 284 286 286 286 286 287 287 288 287 286 285 284 283 283 282 282 282 283 282 281 279 279 280 281 279 275 280
280 282 281 277 273 274 281 283 286 279 278 280 283 283 282 279 281 284 286 286 285 285 285 286 286 285 284 284 283 282 282 281 282 280 280 280 279 278 278 278 275 275 279 281
278 278 277 278 276 270 279 283 282 283 284 284 283 282 282 282 281 282 283 284 285 284 284 285 282 283 283 281 279 280 280 281 279 278 277 276 275 275 278 274 275 272 276 282
273 278 276 279 278 281 280 282 284 286 283 283 281 282 283 282 281 281 282 283 284 283 284 282 280 280 280 279 277 278 279 278 278 274 274 274 273 276 273 271 274 276 273 279
276 279 276 277 280 280 282 282 282 282 282 283 282 282 282 281 281 282 282 283 283 282 282 280 279 279 279 276 277 277 278 279 279 277 276 277 276 277 276 277 275 275 275 278
276 278 275 275 279 280 280 281 282 281 281 281 281 280 280 280 280 280 279 279 279 278 277 276 276 276 277 277 276 275 275 272 274 277 279 278 277 275 276 275 275 275 274 276
277 276 275 273 281 280 280 281 281 281 280 278 278 277 279 278 277 275 275 276 274 273 273 273 272 271 271 271 271 271 267 269 271 273 276 278 279 278 276 279 279 281 284 285
Wind_Speed
2 5 7 10 6 4 5 4 4 2 1 4 7 7 12 11 9 11 11 11 11 12 13 8 9 9 9 8 9 12 12 15 11 10 10 10 11 9 8 9 13 13 12 12
5 4 8 6 5 3 2 3 3 4 1 4 4 11 11 9 13 9 10 13 11 7 9 9 9 6 9 10 13 12 15 15 14 11 11 9 11 9 9 9 10 13 14 14
7 4 8 6 4 6 3 5 3 5 3 2 5 9 6 6 5 7 9 10 6 9 10 10 7 7 5 9 11 12 15 16 15 15 6 3 4 3 3 7 8 11 14 14
5 3 6 5 5 6 4 6 4 3 3 4 2 8 6 6 10 7 13 8 9 10 6 7 7 7 6 7 6 8 9 11 12 13 12 15 12 11 9 9 9 8 13 13
8 9 6 4 7 7 6 4 3 3 4 2 4 1 9 3 6 13 9 8 8 6 3 6 7 7 5 6 4 5 6 7 7 11 12 10 7 4 3 3 8 5 6 12
5 1 5 8 4 4 9 7 7 5 2 3 8 8 7 5 7 3 5 8 9 8 6 5 4 6 6 7 7 5 1 2 4 6 6 8 9 6 5 4 7 6 5 4
2 1 0 4 7 4 4 7 2 4 2 8 2 2 9 10 2 4 6 9 10 8 6 7 8 8 8 8 7 5 3 4 6 7 7 7 7 7 8 6 5 5 4 3
9 4 8 5 8 11 8 9 8 9 5 4 3 7 9 3 5 2 4 5 6 10 7 7 6 7 7 7 5 4 4 2 2 3 4 4 5 4 5 5 4 4 5 7
7 6 1 3 4 10 7 7 6 7 3 5 5 7 12 5 5 3 7 8 9 7 6 8 8 5 4 5 5 5 4 2 2 2 3 4 4 5 6 6 5 4 5 4
8 2 1 2 3 1 7 8 4 3 3 4 5 5 7 2 5 3 8 9 8 7 9 8 7 6 4 2 4 6 5 4 4 2 0 1 3 4 4 3 5 5 4 5
6 5 1 4 8 11 3 4 3 6 6 7 2 8 7 7 7 9 5 6 7 8 7 7 7 6 6 7 8 6 6 7 7 6 5 4 4 4 4 4 5 4 4 6
8 5 6 8 2 2 2 6 7 6 5 4 4 10 2 9 8 8 4 4 5 5 7 7 7 7 8 6 6 5 4 6 4 4 4 5 5 4 5 5 6 5 6 5
8 5 4 7 4 2 5 5 5 4 4 11 7 7 4 5 6 3 1 2 3 4 7 6 7 8 7 8 8 8 7 7 6 4 5 5 4 5 6 7 7 6 6 7
2 3 11 18 5 6 7 7 9 10 6 8 12 6 6 7 4 2 2 5 5 5 6 6 7 6 7 7 7 7 7 7 7 7 7 7 6 6 7 7 7 7 7 7
3 5 3 1 4 2 3 6 10 15 20 13 12 11 12 10 4 3 5 5 6 7 8 8 8 7 7 7 7 8 7 8 9 8 8 7 7 6 6 7 7 7 7 7
0 3 2 4 5 4 3 8 5 4 3 6 4 7 6 5 7 5 6 6 6 6 6 7 7 7 8 8 8 8 9 8 7 8 8 8 8 8 7 7 8 7 7 7
2 4 4 5 6 4 6 14 9 5 5 7 11 6 8 4 7 7 5 5 5 4 3 3 4 4 4 6 6 7 8 7 7 7 8 8 8 9 9 7 7 8 8 6
7 4 1 2 4 5 5 2 10 15 8 12 6 8 7 7 7 7 5 5 4 3 2 2 2 3 3 3 4 5 5 6 6 6 6 6 7 9 9 9 8 7 5 6
4 5 3 5 3 5 4 5 8 10 15 9 5 7 6 5 6 3 4 4 3 3 3 3 3 3 3 5 5 6 6 6 6 7 7 6 5 7 8 10 10 9 6 5
2 4 3 3 6 12 7 2 3 5 6 3 9 8 7 5 4 2 3 2 3 4 4 6 6 3 5 5 3 5 6 7 7 7 9 9 8 6 7 6 7 4 3 6
4 3 11 5 4 7 6 4 2 8 7 1 6 7 6 5 3 2 2 2 2 3 6 5 5 6 7 7 6 6 5 6 5 5 6 8 7 7 8 7 4 5 4 5
7 6 3 3 3 8 4 3 8 5 4 7 8 7 7 4 1 2 5 6 6 7 6 6 4 6 6 4 2 6 7 6 6 6 6 6 6 5 5 6 5 5 6 6
2 6 5 6 4 3 2 4 4 6 8 6 7 5 4 3 2 2 4 6 5 6 5 3 3 6 5 4 2 6 5 6 6 6 7 6 6 6 4 4 6 5 3 5
4 3 3 4 1 3 6 5 6 6 7 6 5 3 2 1 3 3 3 5 5 5 6 6 8 9 9 2 3 5 5 6 9 9 9 8 7 9 6 4 3 4 4 5
4 5 6 2 3 5 2 4 5 6 7 6 5 4 4 5 5 4 3 2 4 4 5 5 6 8 11 9 9 7 6 5 7 8 8 10 7 7 8 5 5 5 4 5
5 7 5 5 10 4 4 4 3 5 4 4 3 2 3 4 4 4 3 3 3 7 8 8 8 9 10 9 8 7 5 5 6 8 7 7 9 8 5 7 8 10 13 14
Wind_Direction
9 109 185 199 184 129 150 149 180 236 142 162 234 262 269 282 298 271 255 262 260 252 270 256 248 221 211 208 196 200 193 203 185 192 192 199 207 201 199 198 190 189 190 186
49 208 216 118 139 141 125 110 267 292 41 167 321 272 261 263 259 246 265 268 253 270 289 279 266 234 205 219 212 207 203 198 196 197 202 205 205 208 203 198 192 191 192 188
156 220 135 137 144 150 202 172 199 225 10 36 355 292 291 285 259 277 265 251 264 257 268 279 285 267 241 221 212 206 202 198 197 198 158 92 82 69 171 204 198 202 193 188
213 200 134 156 179 136 172 206 153 147 72 235 45 284 297 279 299 293 272 315 284 272 284 276 289 291 270 266 228 217 202 196 195 178 177 188 199 203 211 207 207 192 190 192
233 172 146 154 188 156 206 115 124 83 105 44 331 54 271 298 285 269 319 328 327 307 290 4 15 14 3 353 304 249 202 189 175 181 185 190 199 182 143 157 183 187 193 195
187 18 144 181 74 143 143 79 47 55 90 297 208 173 276 223 214 338 338 331 343 334 350 357 357 20 14 19 22 18 75 78 118 143 151 172 186 172 155 163 187 196 199 199
48 236 345 126 82 47 91 90 345 343 359 227 99 115 248 264 11 261 303 325 333 333 344 352 17 19 10 17 19 29 106 129 155 165 180 186 185 175 188 181 185 175 194 201
155 239 164 187 170 168 192 156 162 200 200 258 87 235 254 187 71 16 16 343 5 1 9 5 9 13 358 353 11 29 39 108 148 163 195 189 184 194 205 195 191 199 203 216
156 255 90 165 151 146 193 209 165 104 25 56 225 288 307 80 95 68 56 35 21 19 8 16 360 359 334 360 357 22 9 19 111 184 199 215 216 211 217 216 197 199 202 201
200 121 109 169 119 40 160 160 86 1 153 250 266 259 227 159 113 62 39 36 6 10 9 0 360 354 348 25 22 19 2 348 357 3 37 247 249 251 261 247 229 214 220 206
146 130 311 115 208 161 148 183 101 128 150 176 239 255 224 159 155 101 56 23 358 351 353 354 360 354 358 15 25 13 10 7 6 4 357 356 329 312 293 280 282 250 226 223
188 147 173 199 253 238 214 203 152 158 217 245 169 257 5 139 135 103 75 343 343 0 3 13 13 20 23 13 5 11 356 20 3 342 340 329 333 321 293 279 270 260 253 233
175 205 61 350 350 334 203 183 165 117 82 210 148 256 18 98 111 116 36 136 52 55 49 34 30 24 20 27 26 14 8 360 336 343 330 317 306 291 286 274 268 264 263 252
82 107 205 220 196 147 195 191 193 192 204 215 226 160 207 227 209 292 315 83 54 31 31 29 27 17 15 17 19 15 21 13 6 356 341 331 320 298 284 282 276 262 253 257
132 182 123 128 130 100 187 180 181 198 218 200 238 203 196 209 206 164 130 102 72 34 23 18 16 7 2 10 12 10 13 9 358 352 346 327 319 305 295 290 282 269 257 249
15 132 101 193 153 178 226 226 222 241 171 282 152 246 205 232 103 132 140 115 88 62 31 13 7 5 360 355 359 353 357 355 347 342 330 328 330 327 320 308 298 290 275 255
30 136 152 214 152 115 281 210 195 208 215 182 231 188 163 172 161 151 147 133 122 99 76 8 351 341 331 345 349 344 336 334 343 338 329 330 330 321 315 307 302 292 284 271
161 155 176 140 108 209 249 348 199 193 189 211 208 163 158 148 142 139 139 131 96 69 29 323 293 310 309 312 314 317 322 324 325 321 321 327 330 324 319 317 309 298 280 266
166 151 161 177 196 311 289 204 166 168 232 227 146 135 128 117 109 118 118 68 55 359 323 285 292 299 306 314 321 326 328 335 337 329 320 315 319 315 319 318 316 311 294 282
235 181 156 140 168 205 239 189 145 121 283 297 142 146 138 123 127 168 101 358 38 358 320 323 335 322 330 336 331 329 320 331 322 324 318 315 315 301 298 293 299 282 263 274
159 174 204 176 224 279 242 184 182 151 231 41 85 101 96 99 159 182 293 294 339 312 326 332 337 325 316 322 334 316 310 293 278 292 294 298 301 301 293 296 276 270 279 279
172 160 182 158 160 262 177 84 168 161 75 102 88 95 95 119 2 4 320 307 316 326 337 347 324 315 317 310 353 303 301 302 316 306 296 286 279 284 290 295 295 307 300 291
246 193 183 175 207 269 308 105 51 82 106 109 112 129 132 157 175 306 304 322 318 324 322 305 296 303 304 273 227 290 277 321 315 305 293 287 289 287 276 287 296 300 287 282
266 183 131 96 337 77 93 88 81 89 106 89 70 78 71 43 350 333 331 348 348 350 353 350 342 329 314 243 243 240 291 319 317 312 312 313 311 309 302 286 275 285 279 286
194 130 152 81 60 85 33 109 108 90 83 77 59 55 41 15 7 27 16 3 359 346 331 335 320 315 309 327 327 328 327 339 316 308 306 306 297 289 293 277 273 262 244 242
189 174 161 207 179 143 169 158 99 120 112 86 65 26 26 45 10 1 338 354 340 337 328 323 327 317 311 315 313 314 332 330 316 305 298 302 304 301 285 297 304 293 286 282